#timestamp,LO_Frequency,Hit,StdDev 
1589997615.7,286047000.0,N
1589997635.5,286046999.8,N
1589997655.4,286047002.8,N
1589997675.2,286047002.6,N
1589997695.1,286047000.6,N
1589997696.0,286047000.6,N
1589997715.8,286046998.4,N
1589997735.6,286046999.0,N
1589997755.5,286046999.1,N
1589997775.3,286046999.5,N
1589997795.2,286046997.0,N
1589997815.9,286046997.2,N
1589997835.7,286046995.8,N
1589997855.6,286046995.3,N
1589997875.4,286046995.7,N
1589997895.2,286046995.6,N
1589997915.1,286046995.8,N
1589997916.0,286046995.8,N
1589997935.8,286046997.9,N
1589997955.7,286046995.2,N
1589997975.5,286046997.1,N
1589997995.3,286046997.1,N
1589998015.2,286046993.7,N
1589998035.0,286046995.8,N
1589998035.9,286046995.8,N
1589998055.8,286046997.2,N
1589998075.6,286046998.2,N
1589998095.4,286046999.1,N
1589998115.3,286046995.0,N
1589998135.1,286046996.2,N
1589998155.9,286046997.3,N
1589998175.7,286046995.7,N
1589998195.5,286046995.9,N
1589998215.4,286046996.1,N
1589998235.2,286046996.4,N
1589998255.0,286046995.2,Y
1589998255.9,286046995.2,P
1589998275.8,286047001.1,N
1589998295.6,286046998.2,N
1589998315.5,286047000.9,N
1589998335.3,286047001.1,N
1589998355.1,286046999.3,N
1589998375.9,286046997.3,N
1589998395.7,286046996.8,N
1589998415.6,286046997.8,N
1589998435.4,286046999.6,N
1589998455.2,286046996.5,N
1589998475.1,286046999.5,N
1589998476.0,286046999.5,N
1589998495.8,286047000.5,N
1589998515.6,286046998.9,N
1589998535.5,286046998.1,N
1589998555.3,286047000.3,N
1589998575.2,286047002.3,N
1589998595.9,286047011.9,Y
1589998615.7,286047002.0,P
1589998635.6,286047000.4,N
1589998655.4,286047000.1,N
1589998675.3,286047000.2,N
1589998695.1,286047002.8,N
1589998696.0,286047002.8,N
1589998715.8,286047002.6,N
1589998735.7,286047000.0,N
1589998755.5,286047002.6,N
1589998775.3,286047002.3,N
1589998795.2,286046999.9,N
1589998815.0,286047001.3,N
1589998815.9,286047001.3,N
1589998835.8,286047004.2,Y
1589998855.6,286047000.0,P
1589998875.4,286046998.2,N
1589998895.3,286046998.4,N
1589998915.1,286047000.5,N
1589998935.9,286047002.5,N
1589998955.7,286047001.6,N
1589998975.5,286047006.0,Y
1589998995.4,286047002.8,P
1589999015.2,286047000.9,N
1589999035.1,286047004.8,P
1589999036.0,286047004.8,N
1589999055.8,286047005.7,Y
1589999075.6,286047003.8,P
1589999095.5,286046999.9,N
1589999115.3,286047001.7,N
1589999135.1,286046999.8,N
1589999155.9,286047000.5,N
1589999175.7,286047000.6,N
1589999195.6,286047002.7,N
1589999215.4,286047000.7,N
1589999235.2,286046998.2,N
1589999255.1,286047000.8,N
1589999256.0,286047000.8,N
1589999275.8,286047002.4,N
1589999295.7,286047001.0,N
1589999315.5,286046999.0,N
1589999335.3,286046999.4,N
1589999355.2,286047000.9,N
1589999375.0,286046998.7,N
1589999375.9,286046998.7,N
1589999395.8,286047000.9,N
1589999415.6,286046998.6,N
1589999435.4,286047000.8,N
1589999455.3,286047000.3,N
1589999475.1,286047000.5,N
1589999495.8,286046996.9,N
1589999515.7,286046996.6,N
1589999535.5,286046996.5,N
1589999555.4,286046996.6,N
1589999575.2,286046997.1,N
1589999595.0,286046997.4,N
1589999595.9,286046997.4,N
1589999615.8,286046999.5,N
1589999635.6,286047000.5,N
1589999655.5,286046998.7,N
1589999675.3,286047001.2,N
1589999695.1,286046998.8,N
1589999715.9,286046998.6,N
1589999735.7,286046998.9,N
1589999755.5,286046999.4,N
1589999775.4,286047000.9,N
1589999795.2,286047001.9,N
1589999815.1,286047005.6,Y
1589999816.0,286047005.6,P
1589999835.8,286047003.8,N
1589999855.6,286047003.1,N
1589999875.5,286047001.5,N
1589999895.3,286047001.6,N
1589999915.2,286047003.6,N
1589999935.9,286047004.1,N
1589999955.7,286047000.7,N
1589999975.6,286047002.1,N
1589999995.4,286047002.7,N
1590000015.3,286047002.6,N
1590000035.1,286047001.5,N
1590000036.0,286047001.5,N
1590000055.8,286047000.6,N
1590000075.7,286047000.2,N
1590000095.5,286047001.5,N
1590000115.3,286047002.2,N
1590000135.2,286047001.8,N
1590000155.0,286047003.6,N
1590000155.9,286047003.6,N
1590000175.8,286047003.2,N
1590000195.6,286047006.0,Y
1590000215.4,286047004.0,P
1590000235.3,286047002.0,N
1590000255.1,286046999.8,N
1590000275.9,286047002.7,N
1590000295.7,286047002.5,N
1590000315.5,286047001.6,N
1590000335.4,286047003.5,N
1590000355.2,286047003.1,N
1590000375.1,286047001.8,N
1590000376.0,286047001.8,N
1590000395.8,286047002.4,N
1590000415.6,286047004.2,Y
1590000435.5,286047001.2,P
1590000455.3,286047000.9,N
1590000475.1,286047000.9,N
1590000495.9,286046995.3,Y
1590000515.7,286046994.9,P
1590000535.6,286046997.0,N
1590000555.4,286046999.5,N
1590000575.2,286046998.7,N
1590000595.1,286046999.1,N
1590000596.0,286046999.1,N
1590000615.8,286046999.2,N
1590000635.7,286046998.9,N
1590000655.5,286046994.9,Y
1590000675.3,286046997.1,P
1590000695.2,286046997.7,P
1590000715.0,286046996.7,P
1590000715.9,286046996.7,Y
1590000735.8,286046999.9,P
1590000755.6,286047001.1,N
1590000775.4,286046998.7,N
1590000795.3,286046998.2,N
1590000815.1,286047000.6,N
1590000835.9,286047001.5,N
1590000855.7,286046999.8,N
1590000875.5,286047002.7,N
1590000895.4,286047000.1,N
1590000915.2,286047004.0,N
1590000935.0,286047001.9,N
1590000966.0,286047003.8,E
1590000975.9,286047000.4,N
1590001025.8,286046997.6,E
1590001035.7,286046998.5,N
1590001055.5,286047004.4,P
1590001075.4,286047002.7,N
1590001095.2,286046999.0,N
1590001115.0,286046998.4,N
1590001115.9,286046998.4,N
1590001135.8,286046998.9,N
1590001155.6,286046999.5,N
1590001175.4,286047002.3,N
1590001195.3,286046998.5,N
